FENGYUN 1C DEB, 36664

Orbit data source: Space-Track

FENGYUN 1C DEB, 36664 is space debris in SSO originally from a launch on Mon, 10 May 1999 UTC launched from the Taiyaun Space Center, China (TSC). Fengyun 1C debris stems from the Chinese weather satellite Fengyun-1C, which was intentionally destroyed by a Chinese anti-satellite missile in 2007. This event dramatically increased the amount of space debris, with thousands of trackable fragments posing hazards to satellites and human spaceflight. The Fengyun 1C debris cloud has become a focal point in discussions about space sustainability and the need for international regulations to prevent the creation of new debris.

Loading next visibility...
Identifier
36664, 1999-025DYJ
Orbit
SSO
Country
Flag of CNCN / PRC
Related business
Manufacturer
Unknown
Mission
Spacecraft
Bus & Motor
Unknown
Mass
Unknown
Launch date (UTC)
1999-05-10 (27 years ago)
Launch vehicle
Unknown
Launch site
Taiyaun Space Center, China (TSC)
Object type
Payload
Rocket body
Debris
Shape & HBR
Unknown shape, 0.1 m
Radar Cross Section
Medium (>0.1 m² and <1 m²)

Expand to show TLE details & history
Last TLE update: 2 days ago

TLE from 2 days ago
0 FENGYUN 1C DEB
1 36664U 99025DYJ 26206.77843131  .00000139  00000-0  76411-4 0  9996
2 36664  98.5854 229.3432 0172554 170.5989 189.8488 14.18053366669402
Epoch: 2026-07-25T18:40Z
TLE epoch observation values (Epoch: 2026-07-25T18:40:56.465Z)
Latitude
0.00008°
Longitude
5.62209°
Altitude
957.526 km
Speed
7.31 km/s
True Right ascension
15h 17m 22s
True Declination
0° 00' 00"
Sunlit
Object was in daylight at epoch
Visualization orbit readout
Latitude
Unknown
Longitude
Unknown
Altitude
Unknown
Speed
Unknown
Apparent Right ascension
Unknown
Apparent Declination
Unknown
Sunlit
N/A
Visualization observer readout
Local Sidereal Time
11:47:46
Azimuth
Unknown
Elevation
Unknown
Doppler factor
Unknown
Orbital elements
Apogee altitude
953.461 km
Perigee altitude
704.734 km
Semi-major axis
7,207.235 km
Eccentricity
0.01726
Inclination
98.5854°
RAAN
229.3432°
Arg. of periapsis
170.5989°
True anomaly
189.51763°
Mean anomaly
189.8488°
Eccentric anomaly
189.68252°
Mean motion
3.54724 °/min
Orbital period
101.49 mins
BSTAR
0.000076411
Loading maneuver chart data...
Computing Atmospheric mass density...
Loading historical data...
Loading historical data...
Loading historical data...
Loading historical data...
Loading historical data...
Loading historical data...
Loading historical data...

Documentation

Showing up to 5 results
|